Cork, Ireland

10:19 PM IST on April 30, 2017 (GMT +0100)
Cork

Weather History for EICK - October, 2011

Change the Weather History Date:

Monday, October 10, 2011

  Actual Average Record
Temperature  
Mean Temperature 59 °F -  
Max Temperature 61 °F 54 °F 62 °F (2001)
Min Temperature 57 °F 44 °F 37 °F (2000)
Degree Days  
Heating Degree Days 6    
Growing Degree Days 9 (Base 50)    
Moisture  
Dew Point 57 °F    
Average Humidity 91    
Maximum Humidity 94    
Minimum Humidity 88    
Precipitation  
Precipitation 0.00 in 0.16 in - ()
Sea Level Pressure  
Sea Level Pressure 30.04 in    
Wind  
Wind Speed 20 mph ()    
Max Wind Speed 26 mph    
Max Gust Speed 40 mph    
Visibility 6.8 miles    
Events Rain    
Averages and records for this station are not official NWS values.
T = Trace of Precipitation, MM = Missing Value Source: Averaged Metar Reports

Daily Weather History Graph

Daily Weather History Graph

Search for Another Location

Airport or City:

Trip Planner

Search our weather history database for the weather conditions in past years. The results will help you decide how hot, cold, wet, or windy it might be!

Date:

Astronomy

Oct. 10, 2011 Rise Set
Actual Time 7:49 AM IST 6:51 PM IST
Civil Twilight 7:15 AM IST 7:25 PM IST
Nautical Twilight 6:36 AM IST 8:04 PM IST
Astronomical Twilight 5:57 AM IST 8:43 PM IST
Moon 5:51 PM IST (10/10) 6:12 AM IST (10/10)
Length of Visible Light 12h 10m
Length of Day
11h 02m
Waxing Gibbous, 98% of the Moon is Illuminated
Oct 10
Waxing Gibbous
Oct 12
Full
Oct 20
Last Quarter
Oct 26
New
Nov 2
First Quarter

Hourly Weather History & Observations

Time (IST) Temp. Dew Point Humidity Pressure Visibility Wind Dir Wind Speed Gust Speed Precip Events Conditions
12:00 AM 57.2 °F 55.4 °F 94% 30.04 in 6.2 mi WSW 24.2 mph 36.8 mph N/A   Mostly Cloudy
12:30 AM 57.2 °F 55.4 °F 94% 30.04 in 6.2 mi WSW 24.2 mph 35.7 mph N/A   Mostly Cloudy
1:00 AM 58 °F 56 °F 89% 30.05 in 16 mi WSW 22.4 mph - -   Mostly Cloudy
1:00 AM 57.2 °F 55.4 °F 94% 30.04 in 6.2 mi WSW 23.0 mph 38.0 mph N/A   Mostly Cloudy
1:30 AM 59.0 °F 55.4 °F 88% 30.04 in 6.2 mi WSW 24.2 mph - N/A   Mostly Cloudy
2:00 AM 59.0 °F 55.4 °F 88% 30.04 in 6.2 mi WSW 21.9 mph 34.5 mph N/A   Mostly Cloudy
2:30 AM 59.0 °F 55.4 °F 88% 30.04 in 6.2 mi WSW 18.4 mph 32.2 mph N/A   Mostly Cloudy
3:00 AM 59.0 °F 55.4 °F 88% 30.01 in 6.2 mi WSW 24.2 mph 35.7 mph N/A   Mostly Cloudy
3:30 AM 59.0 °F 55.4 °F 88% 30.01 in 6.2 mi WSW 21.9 mph 35.7 mph N/A   Mostly Cloudy
4:00 AM 59.0 °F 57.2 °F 94% 30.01 in 6.2 mi WSW 25.3 mph - N/A   Mostly Cloudy
4:30 AM 59.0 °F 57.2 °F 94% 30.01 in 6.2 mi WSW 23.0 mph - N/A   Mostly Cloudy
5:00 AM 59.0 °F 57.2 °F 94% 30.01 in 6.2 mi WSW 24.2 mph - N/A   Overcast
5:30 AM 59.0 °F 57.2 °F 94% 29.98 in 6.2 mi WSW 26.5 mph 40.3 mph N/A   Mostly Cloudy
6:00 AM 59.0 °F 57.2 °F 94% 29.98 in 6.2 mi WSW 24.2 mph - N/A   Mostly Cloudy
6:30 AM 59.0 °F 57.2 °F 94% 30.01 in 6.2 mi WSW 19.6 mph 32.2 mph N/A   Mostly Cloudy
7:00 AM 59 °F 57 °F 92% 30.01 in 12 mi WSW 22.4 mph - - Rain Light Rain
7:00 AM 59.0 °F 57.2 °F 94% 30.01 in 6.2 mi WSW 23.0 mph 35.7 mph N/A   Overcast
7:30 AM 59.0 °F 57.2 °F 94% 30.01 in 6.2 mi WSW 21.9 mph 39.1 mph N/A   Overcast
8:00 AM 59.0 °F 55.4 °F 88% 30.01 in 6.2 mi WSW 13.8 mph 36.8 mph N/A   Mostly Cloudy
8:30 AM 59.0 °F 55.4 °F 88% 30.01 in 6.2 mi WSW 26.5 mph 39.1 mph N/A   Scattered Clouds
9:00 AM 59.0 °F 55.4 °F 88% 30.01 in 6.2 mi WSW 24.2 mph 39.1 mph N/A   Mostly Cloudy
9:30 AM 59.0 °F 57.2 °F 94% 30.01 in 6.2 mi WSW 24.2 mph 38.0 mph N/A   Scattered Clouds
10:00 AM 60.8 °F 57.2 °F 88% 30.04 in 6.2 mi WSW 23.0 mph 35.7 mph N/A   Mostly Cloudy
10:30 AM 59.0 °F 57.2 °F 94% 30.04 in 6.2 mi WSW 21.9 mph 33.4 mph N/A   Mostly Cloudy
11:00 AM 60.8 °F 57.2 °F 88% 30.04 in 6.2 mi WSW 24.2 mph 38.0 mph N/A   Mostly Cloudy
11:30 AM 60.8 °F 57.2 °F 88% 30.04 in 6.2 mi WSW 21.9 mph - N/A   Mostly Cloudy
12:00 PM 60.8 °F 57.2 °F 88% 30.04 in 6.2 mi WSW 23.0 mph 34.5 mph N/A   Mostly Cloudy
12:30 PM 59.0 °F 57.2 °F 94% 30.04 in 6.2 mi WSW 21.9 mph 33.4 mph N/A   Mostly Cloudy
1:00 PM 60 °F 58 °F 90% 30.05 in 12 mi WSW 24.6 mph - -   Mostly Cloudy
1:00 PM 60.8 °F 57.2 °F 88% 30.04 in 6.2 mi WSW 24.2 mph - N/A   Mostly Cloudy
1:30 PM 60.8 °F 57.2 °F 88% 30.04 in 6.2 mi WSW 23.0 mph - N/A   Mostly Cloudy
2:00 PM 59.0 °F 57.2 °F 94% 30.04 in 6.2 mi WSW 21.9 mph - N/A   Overcast
2:30 PM 60.8 °F 57.2 °F 88% 30.04 in 6.2 mi WSW 23.0 mph - N/A   Overcast
3:00 PM 60.8 °F 57.2 °F 88% 30.04 in 6.2 mi WSW 23.0 mph - N/A   Overcast
3:30 PM 60.8 °F 57.2 °F 88% 30.04 in 6.2 mi WSW 20.7 mph - N/A   Overcast
4:00 PM 60.8 °F 57.2 °F 88% 30.04 in 6.2 mi WSW 18.4 mph - N/A   Scattered Clouds
4:30 PM 60.8 °F 57.2 °F 88% 30.04 in 6.2 mi WSW 18.4 mph - N/A   Mostly Cloudy
5:00 PM 60.8 °F 57.2 °F 88% 30.04 in 6.2 mi WSW 18.4 mph 31.1 mph N/A   Scattered Clouds
5:30 PM 59.0 °F 57.2 °F 94% 30.04 in 6.2 mi WSW 21.9 mph - N/A   Mostly Cloudy
6:00 PM 59.0 °F 57.2 °F 94% 30.04 in 6.2 mi WSW 19.6 mph 33.4 mph N/A   Scattered Clouds
6:30 PM 59.0 °F 57.2 °F 94% 30.06 in 6.2 mi WSW 19.6 mph - N/A   Mostly Cloudy
7:00 PM 58 °F 57 °F 94% 30.07 in 16 mi WSW 17.9 mph - -   Mostly Cloudy
7:00 PM 59.0 °F 57.2 °F 94% 30.06 in 6.2 mi WSW 17.3 mph - N/A   Mostly Cloudy
7:30 PM 59.0 °F 57.2 °F 94% 30.06 in 6.2 mi WSW 18.4 mph - N/A   Mostly Cloudy
8:00 PM 59.0 °F 57.2 °F 94% 30.06 in 6.2 mi WSW 17.3 mph - N/A   Mostly Cloudy
8:30 PM 59.0 °F 57.2 °F 94% 30.06 in 6.2 mi WSW 18.4 mph - N/A   Mostly Cloudy
9:00 PM 59.0 °F 57.2 °F 94% 30.06 in 6.2 mi WSW 17.3 mph - N/A   Mostly Cloudy
9:30 PM 59.0 °F 57.2 °F 94% 30.06 in 6.2 mi WSW 16.1 mph - N/A   Mostly Cloudy
10:00 PM 59.0 °F 57.2 °F 94% 30.06 in 6.2 mi WSW 16.1 mph - N/A   Mostly Cloudy
10:30 PM 59.0 °F 57.2 °F 94% 30.06 in 6.2 mi WSW 19.6 mph - N/A   Mostly Cloudy
11:00 PM 59.0 °F 57.2 °F 94% 30.06 in 6.2 mi WSW 19.6 mph - N/A   Mostly Cloudy
11:30 PM 59.0 °F 57.2 °F 94% 30.06 in 6.2 mi WSW 19.6 mph - N/A   Mostly Cloudy